User: anonymous
Location: Oshawa
(43.9000°N, 78.8670°W)
Time: 20:22:02
(UTC-04:00)
Language:

Cosmos 1707 Rocket - Orbit

View from above orbital plane
View from above orbital plane
View from above satellite
View from above satellite

Ground track
Ground track

The orbit data is extracted from the following two-line orbital elements,

1 16327U 85113B   14231.89077999  .00000204  00000-0  22148-4 0  4279
2 16327 082.5381 337.1692 0020421 149.0263 350.4298 14.82829768548860
Epoch (UTC): 19 August 2014 21:22:43
Eccentricity: 0.0020421
inclination: 82.5381°
perigee height: 606 km
apogee height: 635 km
right ascension of ascending node: 337.1692°
argument of perigee: 149.0263°
revolutions per day: 14.82829768
mean anomaly at epoch: 350.4298°
orbit number at epoch: 54886

The dashed part of the orbit path shows where the satellite is in the earth's shadow,  

DLR